Starlink 31923

operational
NORAD ID: 60600 Int'l Des: 2024-150 Owner: SPXS Country: US Constellation: starlink
LEOCIRCULAR

Starlink 31923について

説明を読み込み中...

リアルタイム位置

3D地球を読み込み中...

次回通過

高度履歴

Altitude vs Time

uPlot chart will show altitude changes over time

軌道要素

1 60600U 24150T 25354.16541231 -.00001358 00000-0 -33745-4 0 9991
2 60600 53.1626 316.5648 0001562 95.9521 264.1657 15.30187568 75866
Epoch: Dec 20, 2025 • Age: 9 hours

現在のステータス

高度 475.7 km
速度 7.63 km/s
衛星直下点 2.17°N, 144.75°W
打ち上げ日 Aug 20, 2024
運用期間 1.3 years
タイプ internet

技術仕様

分類 Payload
質量 730.00 kg
乾燥質量 700.00 kg
総質量 730.00 kg
長さ 0.30 m
直径 4.10 m
スパン 29.00 m
形状 Box + pan
製造者 SPXS
バスタイプ Starlink V2M
フェーズステータス In Orbit
所有者/国 SPXS/US

大規模コンステレーション

Loading constellations...